Location: Unspecified
(58.9933°N, 5.6375°E)
Time: 13:49:06
(UTC+02:00)

Cosmos 1674 - Visible Passes

Search period start: 30 September 2014 00:00
Search period end: 10 October 2014 00:00
Orbit: 515 x 542 km, 82.5° (Epoch: 29 September)

Date Brightness Start Highest point End Pass type
(mag) Time Alt. Az. Time Alt. Az. Time Alt. Az.
30 Sep 3.5 20:58:08 10° NNW 21:02:02 56° W 21:05:56 10° S visible
01 Oct 3.4 20:47:00 10° NNW 20:50:56 60° W 20:54:51 10° S visible
01 Oct 6.2 22:25:44 10° WNW 22:26:04 10° WNW 22:26:23 10° W visible
02 Oct 3.3 20:35:51 10° NNW 20:39:48 64° W 20:43:44 10° S visible
02 Oct 6.1 22:13:59 10° WNW 22:14:59 11° WNW 22:15:58 10° W visible
03 Oct 3.1 20:24:42 10° NNW 20:28:40 69° W 20:32:37 10° S visible
03 Oct 6.1 22:02:32 10° WNW 22:03:53 12° W 22:05:15 10° W visible
04 Oct 3.0 20:13:32 10° NNW 20:17:32 74° W 20:21:30 10° S visible
04 Oct 6.0 21:51:09 10° NW 21:52:47 12° W 21:54:25 10° WSW visible
05 Oct 3.0 20:02:22 10° NNW 20:06:22 79° W 20:10:21 10° S visible
05 Oct 6.0 21:39:48 10° NW 21:41:40 13° W 21:43:32 10° WSW visible
06 Oct 2.9 19:51:12 10° NNW 19:55:12 84° WSW 19:59:11 10° S visible
06 Oct 6.0 21:28:28 10° NW 21:30:33 14° W 21:32:37 10° WSW visible
07 Oct 2.8 19:40:01 10° NNW 19:44:02 89° W 19:48:01 10° SSE visible
07 Oct 6.0 21:17:10 10° NW 21:19:24 15° W 21:21:39 10° WSW visible
08 Oct 2.8 19:28:50 10° NNW 19:32:51 85° ENE 19:36:50 10° SSE visible
08 Oct 6.0 21:05:51 10° NW 21:08:16 16° W 21:10:40 10° WSW visible
09 Oct 6.0 20:54:33 10° NW 20:57:06 17° W 20:59:39 10° WSW visible
